Regional Weather Roundup
Issued by NWS

Home | Current Version | Previous Version | Text Only | Print | Product List | Glossary Off
Versions: 1 2 3 4 5 6 7 8 9 10 11 12 13 14 15 16 17 18 19 20 21 22 23 24 25 26 27 28 29 30 31 32 33 34 35 36 37 38 39 40 41 42 43 44 45 46 47 48 49 50

024
ASUS43 KTOP 222159
RWRKS

WEATHER ROUNDUP FOR KANSAS
NATIONAL WEATHER SERVICE GOODLAND KS
500 PM CDT TUE AUG 22 2017

NOTE:  "FAIR" INDICATES FEW OR NO CLOUDS BELOW 12,000 FEET WITH NO
SIGNIFICANT WEATHER AND/OR OBSTRUCTIONS TO VISIBILITY.

KSZ001>006-013>018-027>032-041>047-222300-
NORTHWEST KANSAS

CITY           SKY/WX    TMP DP  RH WIND       PRES   REMARKS
GOODLAND       SUNNY     79  58  48 SE10      30.24F
HAYS           SUNNY     84  49  29 NE12      30.16F
HILL CITY      SUNNY     84  47  27 NE9       30.19F
RUSSELL        SUNNY     86  47  25 NE15      30.14F
$$

KSZ061>065-074>080-084>089-222300-
SOUTHWEST KANSAS

CITY           SKY/WX    TMP DP  RH WIND       PRES   REMARKS
DODGE CITY     SUNNY     86  55  34 E14G20    30.16F
ELKHART          N/A     79  64  60 NE10        N/A
GARDEN CITY    SUNNY     85  53  33 E14       30.18F
GREAT BEND     SUNNY     85  55  35 NE12G21   30.14F
LIBERAL        MOSUNNY   84  64  50 NE13      30.16F
$$

KSZ066>073-081>083-090>101-222300-
SOUTHEAST KANSAS

CITY           SKY/WX    TMP DP  RH WIND       PRES   REMARKS
CHANUTE        MOSUNNY   84  69  60 NE7       30.08F
COFFEYVILLE    CLOUDY    80  72  76 N9        30.05F
HUTCHINSON     SUNNY     85  57  38 NE9G20    30.11S
MEDICINE LODGE   N/A     86  66  51 NE20G25   30.07F
NEWTON         SUNNY     83  59  44 NE9G20    30.11F
PARSONS        CLOUDY    79  71  76 VRB6      30.08F
WICHITA INTL   MOSUNNY   86  64  47 NE17G25   30.08F
WICHITA JABRA  SUNNY     83  60  45 NE14      30.09F
WICHITA MCCONL PTSUNNY   84  64  49 E15       30.09F
WINFIELD       CLOUDY    80  69  69 NE12      30.07F
$$

KSZ007>012-019>026-033>040-048>060-102>105-222300-
NORTHEAST KANSAS

CITY           SKY/WX    TMP DP  RH WIND       PRES   REMARKS
CONCORDIA      SUNNY     81  53  37 NE12      30.15F
EMPORIA        SUNNY     82  60  47 NE10      30.10F
LAWRENCE       MOSUNNY   79  63  57 N7        30.09F
MANHATTAN      SUNNY     82  54  37 N10G17    30.11F
OLATHE IND     MOSUNNY   78  63  59 NW13      30.10F
OLATHE EXE     SUNNY     78  62  57 NW12      30.09F
SALINA         SUNNY     87  47  24 NE16      30.12F
TOPEKA BILLARD SUNNY     80  60  50 N14G20    30.10F
TOPEKA FORBES  SUNNY     81  64  56 NE8       30.10F
$$




USA.gov is the U.S. government's official web portal to all federal, state and local government web resources and services.